FW3834 Weather Reports


time (UTC)temp
C
wind
direction
speed
KPH
gust
KPH
rain 1hr
cm
rain 24hr
cm
rain mn
cm
humidity
%
barometer
mb
20260502164033 15 86 1.6 3.2 0.00 0.00 0.00 63 1017.7
20260502163033 15 86 1.6 3.2 0.00 0.00 0.00 65 1017.6
20260502162053 14 84 1.6 3.2 0.00 0.00 0.00 65 1017.5
20260502161033 14 86 1.6 3.2 0.00 0.00 0.00 66 1017.6
20260502152033 14 70 1.6 3.2 0.00 0.00 0.00 66 1017.2
20260502151053 12 66 1.6 1.6 0.00 0.00 0.00 76 1016.9
20260502123033 10 0.0 0.0 0.00 0.00 0.00 85 1016.4
20260502122033 10 0.0 0.0 0.00 0.00 0.00 86 1016.2
20260502121033 10 0.0 0.0 0.00 0.00 0.00 86 1016.3
20260502115053 10 0.0 0.0 0.00 0.00 0.00 85 1016.3
20260502114033 10 0.0 0.0 0.00 0.00 0.00 86 1016.2
20260502113053 10 0.0 0.0 0.00 0.00 0.00 87 1016.2
20260502112033 10 0.0 0.0 0.00 0.00 0.00 85 1016.2
20260502111033 10 0.0 0.0 0.00 0.00 0.00 84 1016.1
20260502110034 10 0.0 0.0 0.00 0.00 0.00 86 1016.0
20260502105033 10 0.0 0.0 0.00 0.00 0.00 85 1016.1
20260502104033 10 0.0 0.0 0.00 0.00 0.00 87 1016.2
20260502103033 10 0.0 0.0 0.00 0.00 0.00 86 1016.2
20260502102033 10 0.0 0.0 0.00 0.00 0.00 86 1016.2
20260502101033 10 0.0 0.0 0.00 0.00 0.00 86 1016.2
20260502091033 10 0.0 0.0 0.00 0.00 0.00 87 1016.1
20260502071032 10 66 0.0 1.6 0.00 0.00 0.00 87 1015.9
20260502070033 10 66 0.0 1.6 0.00 0.00 0.00 88 1016.0
20260502065032 10 66 0.0 1.6 0.00 0.00 0.00 88 1016.0
20260502064032 10 66 1.6 1.6 0.00 0.00 0.00 88 1015.9
20260502063032 10 66 0.0 1.6 0.00 0.00 0.00 87 1015.7
20260502062032 10 66 0.0 1.6 0.00 0.00 0.00 87 1015.7
20260502061032 10 0.0 0.0 0.00 0.00 0.00 87 1015.8
20260502060032 10 66 0.0 1.6 0.00 0.00 0.00 87 1015.7
20260502055032 10 66 0.0 1.6 0.00 0.00 0.00 87 1015.7
20260502054032 10 66 0.0 1.6 0.00 0.00 0.00 86 1015.8
20260502053032 10 66 1.6 1.6 0.00 0.00 0.00 87 1015.8
20260502052032 10 66 1.6 1.6 0.00 0.00 0.00 86 1015.7
20260502051052 10 67 1.6 1.6 0.00 0.00 0.00 85 1015.8
20260502050032 10 67 0.0 1.6 0.00 0.00 0.00 86 1015.7
20260502045032 10 67 1.6 1.6 0.00 0.00 0.00 86 1015.6
20260502044032 10 67 1.6 1.6 0.00 0.00 0.00 85 1015.6
20260502043032 11 67 1.6 1.6 0.00 0.00 0.00 88 1015.6
20260502042032 11 67 1.6 1.6 0.00 0.00 0.00 84 1015.6
20260502041033 11 70 1.6 1.6 0.00 0.00 0.00 83 1015.6
20260502040032 11 71 0.0 1.6 0.00 0.00 0.00 84 1015.5
20260502035032 11 0.0 0.0 0.00 0.00 0.00 86 1015.4
20260502034033 12 0.0 0.0 0.00 0.00 0.00 84 1015.4
20260502033032 12 0.0 0.0 0.00 0.00 0.00 86 1015.2
20260502032032 12 71 0.0 1.6 0.00 0.00 0.00 83 1015.3
20260502031032 12 0.0 0.0 0.00 0.00 0.00 84 1015.1
20260502030032 13 0.0 0.0 0.00 0.00 0.00 82 1015.1
20260502025032 13 0.0 0.0 0.00 0.00 0.00 81 1015.1
20260502024032 13 0.0 0.0 0.00 0.00 0.00 81 1015.1
20260502023052 13 0.0 0.0 0.00 0.00 0.00 79 1015.0
20260502022032 13 71 0.0 1.6 0.00 0.00 0.00 77 1015.0
20260502021052 13 0.0 0.0 0.00 0.00 0.00 77 1015.0
20260502020032 14 0.0 0.0 0.00 0.00 0.00 77 1014.9
20260502015032 15 72 0.0 1.6 0.00 0.00 0.00 75 1014.9
20260502014032 15 68 0.0 1.6 0.00 0.00 0.00 72 1015.0
20260502013032 14 0.0 0.0 0.00 0.00 0.00 74 1015.1
20260502012052 14 73 0.0 1.6 0.00 0.00 0.00 76 1015.2
20260502011032 15 0.0 0.0 0.00 0.00 0.00 75 1015.2
20260502010052 15 83 0.0 3.2 0.00 0.00 0.00 72 1015.3
20260502005032 15 0.0 0.0 0.00 0.00 0.00 73 1015.3
20260502004032 15 0.0 0.0 0.00 0.00 0.00 71 1015.3
20260502003032 15 0.0 0.0 0.00 0.00 0.00 70 1015.3
20260502002032 15 0.0 0.0 0.00 0.00 0.00 71 1015.4
20260502001032 15 88 1.6 1.6 0.00 0.00 0.00 67 1015.4
20260502000032 16 87 1.6 3.2 0.00 0.00 0.00 67 1015.4
20260501235032 15 86 1.6 3.2 0.00 0.00 0.00 70 1015.4
20260501234032 15 86 0.0 1.6 0.00 0.00 0.00 72 1015.4
20260501233032 16 86 1.6 1.6 0.00 0.00 0.00 67 1015.4
20260501232052 16 86 0.0 3.2 0.00 0.00 0.00 70 1015.4
20260501231052 16 0.0 0.0 0.00 0.00 0.00 64 1015.6
20260501230032 16 85 0.0 1.6 0.00 0.00 0.00 70 1015.6
20260501225032 16 0.0 0.0 0.00 0.00 0.00 71 1015.7
20260501224052 16 85 0.0 1.6 0.00 0.00 0.00 67 1015.9
20260501223032 15 0.0 0.0 0.00 0.00 0.00 75 1015.9
20260501222032 15 0.0 0.0 0.00 0.00 0.00 75 1015.9
20260501221032 15 0.0 0.0 0.00 0.00 0.00 69 1016.0
20260501220032 15 85 0.0 1.6 0.00 0.00 0.00 70 1016.0
20260501215032 16 0.0 0.0 0.00 0.00 0.00 67 1016.1
20260501214032 15 85 0.0 1.6 0.00 0.00 0.00 71 1016.2
20260501213052 15 85 0.0 1.6 0.00 0.00 0.00 68 1016.2
20260501212052 15 85 0.0 1.6 0.00 0.00 0.00 70 1016.4
20260501211032 16 85 1.6 1.6 0.00 0.00 0.00 67 1016.3
20260501210032 16 0.0 0.0 0.00 0.00 0.00 69 1016.2
20260501205032 16 84 1.6 3.2 0.00 0.00 0.00 64 1016.2
20260501204032 16 84 1.6 1.6 0.00 0.00 0.00 65 1016.1
20260501203032 16 90 1.6 3.2 0.00 0.00 0.00 67 1016.2
20260501202032 16 88 3.2 8.0 0.00 0.00 0.00 67 1016.1
20260501201032 16 90 1.6 4.8 0.00 0.00 0.00 65 1016.2
20260501200032 16 88 1.6 3.2 0.00 0.00 0.00 66 1016.2
20260501195052 16 85 1.6 3.2 0.00 0.00 0.00 67 1016.3
20260501194033 16 86 3.2 4.8 0.00 0.00 0.00 67 1016.3
20260501193032 15 84 1.6 3.2 0.00 0.00 0.00 67 1016.5
20260501192032 15 88 1.6 3.2 0.00 0.00 0.00 68 1016.4
20260501191032 15 83 1.6 3.2 0.00 0.00 0.00 67 1016.3
20260501190032 15 90 3.2 3.2 0.00 0.00 0.00 67 1016.5
20260501185032 15 89 1.6 3.2 0.00 0.00 0.00 67 1016.4
20260501184032 16 89 1.6 3.2 0.00 0.00 0.00 67 1016.5
20260501183032 15 89 1.6 3.2 0.00 0.00 0.00 67 1016.5
20260501182032 15 88 1.6 3.2 0.00 0.00 0.00 67 1016.5
20260501181052 15 87 1.6 3.2 0.00 0.00 0.00 66 1016.6
20260501180052 15 85 3.2 4.8 0.00 0.00 0.00 68 1016.6